EW9826 Weather Reports


time (UTC)temp
C
wind
direction
speed
KPH
gust
KPH
rain 1hr
cm
rain 24hr
cm
rain mn
cm
humidity
%
barometer
mb
20260509095504 16 71 4.8 12.9 0.00 0.00 0.00 58 1019.0
20260509095005 16 0 6.4 11.3 0.00 0.00 0.00 58 1019.0
20260509094505 16 98 4.8 12.9 0.00 0.00 0.00 58 1019.0
20260509094005 16 106 1.6 11.3 0.00 0.00 0.00 59 1019.1
20260509093504 16 114 4.8 8.0 0.00 0.00 0.00 58 1019.1
20260509093004 16 66 4.8 9.7 0.00 0.00 0.00 59 1019.1
20260509092504 16 15 6.4 20.9 0.00 0.00 0.00 61 1019.1
20260509092004 16 118 4.8 12.9 0.00 0.00 0.00 61 1019.2
20260509082508 15 105 8.0 16.1 0.00 0.00 0.00 67 1019.3
20260509082008 15 110 8.0 14.5 0.00 0.00 0.00 66 1019.2
20260509081508 15 132 4.8 11.3 0.00 0.00 0.00 65 1019.2
20260509081010 15 150 4.8 12.9 0.00 0.00 0.00 67 1019.3
20260509075008 14 104 6.4 20.9 0.00 0.00 0.00 69 1019.3
20260509074509 14 119 8.0 19.3 0.00 0.00 0.00 70 1019.3
20260509074009 14 81 8.0 19.3 0.00 0.00 0.00 71 1019.3
20260509073508 14 103 3.2 16.1 0.00 0.00 0.00 72 1019.2
20260509073009 14 103 1.6 12.9 0.00 0.00 0.00 72 1019.3
20260509072508 13 105 1.6 4.8 0.00 0.00 0.00 73 1019.4
20260509072008 13 105 1.6 4.8 0.00 0.00 0.00 75 1019.4
20260509071508 13 105 1.6 8.0 0.00 0.00 0.00 77 1019.4
20260509071009 12 105 3.2 12.9 0.00 0.00 0.00 77 1019.4
20260509061009 10 103 6.4 12.9 0.00 0.00 0.00 82 1019.4
20260509055512 10 22 1.6 8.0 0.00 0.00 0.00 83 1019.4
20260509055008 10 20 0.0 3.2 0.00 0.00 0.00 85 1019.4
20260509051507 8 20 0.0 3.2 0.00 0.00 0.00 89 1019.2
20260509051008 8 20 0.0 1.6 0.00 0.00 0.00 90 1019.1
20260509050008 8 20 0.0 0.0 0.00 0.00 0.00 89 1019.1
20260509045507 8 20 0.0 0.0 0.00 0.00 0.00 89 1019.0
20260509045007 8 20 0.0 0.0 0.00 0.00 0.00 89 1019.0
20260509042507 7 340 0.0 0.0 0.00 0.00 0.00 89 1018.9
20260509042007 7 340 0.0 0.0 0.00 0.00 0.00 89 1018.9
20260509041507 7 340 0.0 0.0 0.00 0.00 0.00 89 1018.9
20260509041007 7 340 0.0 0.0 0.00 0.00 0.00 88 1018.9
20260509040007 8 340 0.0 0.0 0.00 0.00 0.00 89 1018.8
20260509035507 8 340 0.0 0.0 0.00 0.00 0.00 88 1018.9
20260509035008 8 340 0.0 0.0 0.00 0.00 0.00 88 1018.8
20260509034507 8 340 0.0 0.0 0.00 0.00 0.00 88 1018.8
20260509034008 8 340 0.0 0.0 0.00 0.00 0.00 88 1018.9
20260509033507 8 340 0.0 0.0 0.00 0.00 0.00 88 1018.9
20260509031008 8 340 0.0 0.0 0.00 0.00 0.00 88 1018.9
20260509024008 8 340 0.0 0.0 0.00 0.00 0.00 88 1018.9
20260509023508 8 340 0.0 1.6 0.00 0.00 0.00 88 1018.9
20260509023008 8 340 0.0 0.0 0.00 0.00 0.00 88 1018.9
20260509022507 8 340 0.0 0.0 0.00 0.00 0.00 88 1018.9
20260509022007 8 340 0.0 0.0 0.00 0.00 0.00 88 1018.9
20260509021507 8 340 0.0 0.0 0.00 0.00 0.00 88 1018.9
20260509021008 8 340 0.0 0.0 0.00 0.00 0.00 88 1018.9
20260509020007 8 340 0.0 0.0 0.00 0.00 0.00 88 1018.9
20260509015007 8 340 0.0 0.0 0.00 0.00 0.00 87 1018.9
20260509010007 9 340 0.0 0.0 0.00 0.00 0.00 85 1019.2
20260509004008 10 340 0.0 0.0 0.00 0.00 0.00 84 1019.0
20260509003507 10 340 0.0 0.0 0.00 0.00 0.00 83 1019.1
20260509003007 10 340 0.0 0.0 0.00 0.00 0.00 83 1019.0
20260509002507 10 340 0.0 0.0 0.00 0.00 0.00 83 1018.9
20260509000006 10 340 0.0 0.0 0.00 0.00 0.00 82 1018.9
20260508235507 10 340 0.0 0.0 0.00 0.00 0.00 83 1018.9
20260508234007 10 340 0.0 0.0 0.00 0.00 0.00 84 1018.9
20260508233508 10 340 0.0 0.0 0.00 0.00 0.00 84 1018.9
20260508233007 10 340 0.0 0.0 0.00 0.00 0.00 85 1018.9
20260508232507 10 340 0.0 0.0 0.00 0.00 0.00 85 1018.9
20260508232007 10 340 0.0 0.0 0.00 0.00 0.00 85 1018.9
20260508230007 10 340 0.0 0.0 0.00 0.00 0.00 83 1018.9
20260508225506 10 340 0.0 0.0 0.00 0.00 0.00 83 1018.8
20260508225007 10 340 0.0 0.0 0.00 0.00 0.00 83 1018.9
20260508224507 10 340 0.0 0.0 0.00 0.00 0.00 82 1018.9
20260508224007 10 340 0.0 0.0 0.00 0.00 0.00 82 1018.9
20260508223507 10 340 0.0 0.0 0.00 0.00 0.00 81 1018.9
20260508223006 11 340 0.0 0.0 0.00 0.00 0.00 81 1018.9
20260508222506 11 340 0.0 0.0 0.00 0.00 0.00 81 1019.0
20260508222007 11 340 0.0 0.0 0.00 0.00 0.00 81 1019.0
20260508221506 11 340 0.0 0.0 0.00 0.00 0.00 80 1019.0
20260508221007 11 340 0.0 0.0 0.00 0.00 0.00 80 1018.9
20260508215007 11 340 0.0 0.0 0.00 0.00 0.00 79 1018.9
20260508214506 11 340 0.0 0.0 0.00 0.00 0.00 78 1018.9
20260508214007 11 340 0.0 0.0 0.00 0.00 0.00 78 1018.9
20260508212506 12 340 0.0 0.0 0.00 0.00 0.00 76 1018.9
20260508211506 12 340 0.0 0.0 0.00 0.00 0.00 75 1018.9
20260508211008 12 340 0.0 0.0 0.00 0.00 0.00 75 1018.9
20260508210006 12 340 0.0 0.0 0.00 0.00 0.00 74 1018.9
20260508204506 13 340 0.0 0.0 0.00 0.00 0.00 73 1018.8
20260508204007 13 340 0.0 0.0 0.00 0.00 0.00 73 1018.9
20260508203506 13 340 0.0 0.0 0.00 0.00 0.00 72 1018.9
20260508203006 13 340 0.0 0.0 0.00 0.00 0.00 72 1018.9
20260508202506 13 340 0.0 0.0 0.00 0.00 0.00 71 1018.9
20260508192006 15 340 0.0 1.6 0.00 0.00 0.00 62 1018.4
20260508191506 15 340 0.0 3.2 0.00 0.00 0.00 62 1018.4
20260508190006 16 340 1.6 4.8 0.00 0.00 0.00 61 1018.3
20260508185506 16 340 0.0 4.8 0.00 0.00 0.00 60 1018.3
20260508183506 16 340 1.6 8.0 0.00 0.00 0.00 60 1018.0
20260508183006 16 340 1.6 4.8 0.00 0.00 0.00 60 1017.9
20260508182505 16 340 1.6 4.8 0.00 0.00 0.00 60 1017.9
20260508182006 16 340 3.2 8.0 0.00 0.00 0.00 60 1017.9
20260508181505 16 340 4.8 9.7 0.00 0.00 0.00 59 1017.9
20260508181006 16 340 6.4 9.7 0.00 0.00 0.00 59 1017.9
20260508174006 16 335 3.2 8.0 0.00 0.00 0.00 59 1017.8
20260508173508 16 334 4.8 11.3 0.00 0.00 0.00 59 1017.7
20260508173006 16 334 4.8 8.0 0.00 0.00 0.00 60 1017.7
20260508172006 16 334 4.8 8.0 0.00 0.00 0.00 59 1017.7
20260508171505 16 335 4.8 8.0 0.00 0.00 0.00 59 1017.6
20260508171006 16 338 3.2 11.3 0.00 0.00 0.00 59 1017.6
20260508164505 16 3 1.6 4.8 0.00 0.00 0.00 51 1017.4
20260508164005 16 3 8.0 11.3 0.00 0.00 0.00 50 1017.4
20260508163505 16 327 4.8 9.7 0.00 0.00 0.00 52 1017.3
20260508163006 16 33 4.8 9.7 0.00 0.00 0.00 51 1017.3
20260508162506 17 33 3.2 8.0 0.00 0.00 0.00 52 1017.3
20260508162006 17 35 3.2 8.0 0.00 0.00 0.00 51 1017.3
20260508160006 17 326 4.8 9.7 0.00 0.00 0.00 47 1017.3
20260508155505 18 302 3.2 9.7 0.00 0.00 0.00 46 1017.3
20260508153506 17 0 3.2 8.0 0.00 0.00 0.00 47 1017.3
20260508152005 17 56 3.2 8.0 0.00 0.00 0.00 46 1017.4
20260508143005 17 0 8.0 11.3 0.00 0.00 0.00 52 1017.5
20260508142505 17 4 6.4 12.9 0.00 0.00 0.00 53 1017.6
20260508142005 17 3 3.2 11.3 0.00 0.00 0.00 53 1017.6
20260508141505 17 84 0.0 4.8 0.00 0.00 0.00 49 1017.7
20260508141006 17 84 1.6 4.8 0.00 0.00 0.00 52 1017.7
20260508132005 16 142 4.8 9.7 0.00 0.00 0.00 57 1017.9
20260508131505 16 144 1.6 8.0 0.00 0.00 0.00 56 1017.9
20260508124005 16 11 1.6 9.7 0.00 0.00 0.00 57 1017.9
20260508123504 16 355 3.2 11.3 0.00 0.00 0.00 56 1017.9
20260508123005 17 53 4.8 8.0 0.00 0.00 0.00 57 1017.9
20260508122505 17 10 1.6 4.8 0.00 0.00 0.00 57 1017.9
20260508122005 17 10 1.6 14.5 0.00 0.00 0.00 57 1017.9
20260508115005 16 105 3.2 12.9 0.00 0.00 0.00 58 1017.9
20260508114504 17 327 4.8 9.7 0.00 0.00 0.00 57 1017.9
20260508114005 16 121 3.2 12.9 0.00 0.00 0.00 60 1017.9
20260508113504 16 127 4.8 16.1 0.00 0.00 0.00 59 1017.9
20260508113005 16 94 3.2 11.3 0.00 0.00 0.00 61 1017.9
20260508112505 16 93 4.8 12.9 0.00 0.00 0.00 60 1018.0
20260508112004 16 92 4.8 14.5 0.00 0.00 0.00 61 1017.9
20260508111505 16 117 3.2 11.3 0.00 0.00 0.00 62 1018.0
20260508111005 16 155 4.8 12.9 0.00 0.00 0.00 62 1018.1
20260508110005 16 106 3.2 8.0 0.00 0.00 0.00 63 1018.2
20260508105505 15 105 3.2 11.3 0.00 0.00 0.00 63 1018.2